User: anonymous   Login
Location: Mentone
(34.5413°N, 85.5351°W)
Time: 19:35:07
(UTC-06:00)
Language:

Cosmos 2150 Rocket - Orbit

View from above orbital plane
View from above orbital plane
View from above satellite
View from above satellite

Ground track
Ground track

The orbit data is extracted from the following two-line orbital elements,

1 21419U 91041B   14329.85377959  .00000121  00000-0  52663-4 0  6700
2 21419 074.0398 208.2224 0041278 001.7389 070.8662 14.33613065226562
Epoch (UTC): 25 November 2014 20:29:26
Eccentricity: 0.0041278
inclination: 74.0398°
perigee height: 750 km
apogee height: 809 km
right ascension of ascending node: 208.2224°
argument of perigee: 1.7389°
revolutions per day: 14.33613065
mean anomaly at epoch: 70.8662°
orbit number at epoch: 22656

The dashed part of the orbit path shows where the satellite is in the earth's shadow,  

DLR